Back to catalog

ATLAS 5 CENTAUR DEB

LostHEO
NORAD 43978·DEBRIS·🇺🇸 United States

Launched Sep 17, 2014 from Cape Canaveral Space Force Station

Loading…

Next Passes (next 24 hours)

TLE

StaleSource: Space-Track

Epoch: Jan 25, 2019, 00:14 UTC

1 43978U 14055AH  19025.01008542 -.00000181  00000-0  00000+0 0  9993
2 43978  22.2568  32.5491 4641123  78.1881  45.2433  1.83159221  2618

Track ATLAS 5 CENTAUR DEB in real time with AllMySat

Download on the App Store